TimeMST,TemperatureF,Dew PointF,Humidity,Sea Level PressureIn,VisibilityMPH,Wind Direction,Wind SpeedMPH,Gust SpeedMPH,PrecipitationIn,Events,Conditions,WindDirDegrees,DateUTC
12:23 AM,66.2,59.0,78,30.23,10.0,Calm,Calm,-,N/A,,Overcast,0,2013-08-26 07:23:00
12:46 AM,64.4,60.8,88,30.23,10.0,Calm,Calm,-,N/A,,Scattered Clouds,0,2013-08-26 07:46:00
12:53 AM,66.0,61.0,84,30.09,10.0,Calm,Calm,-,N/A,,Partly Cloudy,0,2013-08-26 07:53:00
1:53 AM,66.9,59.0,76,30.08,10.0,Calm,Calm,-,N/A,,Overcast,0,2013-08-26 08:53:00
2:03 AM,66.2,59.0,78,30.22,10.0,Calm,Calm,-,N/A,,Overcast,0,2013-08-26 09:03:00
2:53 AM,66.9,59.0,76,30.08,10.0,Calm,Calm,-,N/A,,Overcast,0,2013-08-26 09:53:00
3:53 AM,66.0,60.1,81,30.08,10.0,ESE,3.5,-,0.01,Rain,Light Rain,110,2013-08-26 10:53:00
4:49 AM,64.4,60.8,88,30.22,10.0,Calm,Calm,-,0.01,,Overcast,0,2013-08-26 11:49:00
4:53 AM,64.9,61.0,87,30.09,10.0,Calm,Calm,-,0.01,,Overcast,0,2013-08-26 11:53:00
5:53 AM,64.9,61.0,87,30.09,10.0,Calm,Calm,-,N/A,,Overcast,0,2013-08-26 12:53:00
6:53 AM,64.9,61.0,87,30.09,10.0,Calm,Calm,-,0.01,,Mostly Cloudy,0,2013-08-26 13:53:00
7:53 AM,64.9,61.0,87,30.10,9.0,West,3.5,-,0.00,Rain,Light Rain,270,2013-08-26 14:53:00
8:53 AM,66.9,61.0,81,30.10,10.0,Calm,Calm,-,0.00,,Overcast,0,2013-08-26 15:53:00
9:53 AM,68.0,62.1,81,30.11,8.0,WNW,3.5,-,0.00,Rain,Light Rain,290,2013-08-26 16:53:00
10:53 AM,70.0,63.0,78,30.09,10.0,NNE,3.5,-,0.00,Rain,Light Rain,20,2013-08-26 17:53:00
11:53 AM,71.1,63.0,75,30.07,10.0,Calm,Calm,-,0.00,,Mostly Cloudy,0,2013-08-26 18:53:00
12:53 PM,73.9,63.0,68,30.04,10.0,NE,3.5,-,N/A,,Partly Cloudy,50,2013-08-26 19:53:00
1:53 PM,77.0,63.0,62,30.01,10.0,NE,6.9,-,N/A,,Scattered Clouds,50,2013-08-26 20:53:00
2:53 PM,75.9,62.1,62,29.99,10.0,NE,5.8,-,N/A,,Mostly Cloudy,40,2013-08-26 21:53:00
3:31 PM,73.4,62.6,69,30.15,-9999.0,NE,5.8,-,0.01,Rain-Thunderstorm,Light Thunderstorms and Rain,50,2013-08-26 22:31:00
3:48 PM,71.6,64.4,78,30.17,2.0,Calm,Calm,-,0.04,Rain-Thunderstorm,Heavy Thunderstorms and Rain,0,2013-08-26 22:48:00
3:53 PM,70.0,63.0,78,30.01,1.8,Calm,Calm,-,0.06,Rain-Thunderstorm,Heavy Thunderstorms and Rain,0,2013-08-26 22:53:00
4:01 PM,69.8,64.4,83,30.15,2.0,Calm,Calm,-,0.03,Rain-Thunderstorm,Heavy Rain,0,2013-08-26 23:01:00
4:05 PM,69.8,64.4,83,30.15,2.5,Calm,Calm,-,0.04,Rain-Thunderstorm,Rain,0,2013-08-26 23:05:00
4:12 PM,69.8,64.4,83,30.16,8.0,WNW,3.5,-,0.04,Rain-Thunderstorm,Light Rain,290,2013-08-26 23:12:00
4:30 PM,69.8,64.4,83,30.16,10.0,Calm,Calm,-,0.04,,Overcast,0,2013-08-26 23:30:00
4:53 PM,71.1,64.9,81,30.00,10.0,ENE,3.5,-,0.04,,Mostly Cloudy,60,2013-08-26 23:53:00
9:53 PM,69.1,66.0,90,30.03,10.0,Calm,Calm,-,N/A,,Scattered Clouds,0,2013-08-27 04:53:00
10:53 PM,70.0,66.0,87,30.04,10.0,WSW,4.6,-,N/A,,Overcast,240,2013-08-27 05:53:00
11:53 PM,70.0,66.0,87,30.02,10.0,Calm,Calm,-,0.02,,Mostly Cloudy,0,2013-08-27 06:53:00